When you browse on this site, cookies collect data to enhance your experience and personalize the content and advertising you see.
Visit our Privacy Policy to learn more. By continuing to use the site, you agree to this use of cookies and data.
  • In United Kingdom
  • List of Countries
  • For 7 days
  • Water Temperature
  • Satellite Maps
  • Weather Map
  • Weather Widgets
  • user-avatar
    Login

    Hourly Weather Igls

    Today, 26 April, Friday

    Time Temperature Precipitation Wind Pressure Humidity
    00:00 +10°C° 0 mm 3 mps 681 mmHg 87%
    01:00 +10°C° 0 mm 4 mps 681 mmHg 88%
    02:00 +10°C° 0 mm 4 mps 681 mmHg 88%
    03:00 +10°C° 0 mm 4 mps 681 mmHg 88%
    04:00 +9°C° 0 mm 3 mps 681 mmHg 89%
    05:00 +10°C° 0 mm 3 mps 681 mmHg 86%
    06:00 +11°C° 0 mm 3 mps 681 mmHg 83%
    07:00 +11°C° 0 mm 3 mps 681 mmHg 80%
    08:00 +12°C° 0 mm 3 mps 682 mmHg 74%
    09:00 +14°C° 0 mm 3 mps 682 mmHg 68%
    10:00 +16°C° 0 mm 3 mps 682 mmHg 62%
    11:00 +16°C° 0.4 mm 3 mps 683 mmHg 65%
    12:00 +16°C° 0.4 mm 2 mps 683 mmHg 67%
    13:00 +15°C° 0.4 mm 2 mps 683 mmHg 70%
    14:00 +13°C° 2.3 mm 2 mps 683 mmHg 78%
    15:00 +9°C° 2.3 mm 2 mps 682 mmHg 85%
    16:00 +7°C° 2.3 mm 2 mps 682 mmHg 93%
    17:00 +6°C° 1.1 mm 2 mps 682 mmHg 93%
    18:00 +5°C° 1.1 mm 2 mps 682 mmHg 94%
    19:00 +5°C° 1.1 mm 2 mps 683 mmHg 94%
    20:00 +4°C° 0.1 mm 2 mps 683 mmHg 94%
    21:00 +5°C° 0.1 mm 1 mps 683 mmHg 94%
    22:00 +4°C° 0.1 mm 1 mps 683 mmHg 95%
    23:00 +4°C° 0.1 mm 1 mps 684 mmHg 94%

    Tomorrow, 27 April, Saturday

    Time Temperature Precipitation Wind Pressure Humidity
    00:00 +4°C° 0.1 mm 1 mps 684 mmHg 94%
    01:00 +3°C° 0.1 mm 2 mps 684 mmHg 94%
    02:00 +3°C° 0.2 mm 2 mps 684 mmHg 94%
    03:00 +3°C° 0.2 mm 2 mps 684 mmHg 93%
    04:00 +3°C° 0.2 mm 2 mps 684 mmHg 93%
    05:00 +4°C° 0.1 mm 2 mps 685 mmHg 90%
    06:00 +5°C° 0.1 mm 1 mps 685 mmHg 86%
    07:00 +5°C° 0.1 mm 1 mps 685 mmHg 83%
    08:00 +7°C° 0 mm 1 mps 685 mmHg 79%
    09:00 +8°C° 0 mm 1 mps 685 mmHg 74%
    10:00 +10°C° 0 mm 1 mps 685 mmHg 70%
    11:00 +11°C° 0 mm 1 mps 685 mmHg 67%
    12:00 +12°C° 0 mm 1 mps 685 mmHg 64%
    13:00 +12°C° 0 mm 1 mps 685 mmHg 61%
    14:00 +12°C° 0.1 mm 1 mps 685 mmHg 62%
    15:00 +12°C° 0.1 mm 2 mps 684 mmHg 62%
    16:00 +12°C° 0.1 mm 2 mps 684 mmHg 62%
    17:00 +11°C° 0.1 mm 1 mps 684 mmHg 71%
    18:00 +10°C° 0.1 mm 1 mps 684 mmHg 79%
    19:00 +8°C° 0.1 mm 1 mps 684 mmHg 87%
    20:00 +7°C° 0.1 mm 1 mps 685 mmHg 90%
    21:00 +7°C° 0.1 mm 1 mps 685 mmHg 92%
    22:00 +6°C° 0.1 mm 1 mps 686 mmHg 95%
    23:00 +6°C° 0.6 mm 1 mps 686 mmHg 95%

    Day after tomorrow, 28 April, Sunday

    Time Temperature Precipitation Wind Pressure Humidity
    00:00 +6°C° 0.6 mm 1 mps 686 mmHg 96%
    01:00 +6°C° 0.6 mm 1 mps 686 mmHg 96%
    02:00 +5°C° 1.1 mm 2 mps 686 mmHg 96%
    03:00 +4°C° 1.1 mm 2 mps 685 mmHg 96%
    04:00 +4°C° 1.1 mm 2 mps 685 mmHg 96%
    05:00 +4°C° 1.4 mm 2 mps 685 mmHg 96%
    06:00 +3°C° 1.4 mm 2 mps 685 mmHg 95%
    07:00 +3°C° 1.4 mm 2 mps 685 mmHg 95%
    08:00 +3°C° 0.9 mm 2 mps 685 mmHg 94%
    09:00 +4°C° 0.9 mm 2 mps 685 mmHg 93%
    10:00 +4°C° 0.9 mm 2 mps 685 mmHg 92%
    11:00 +4°C° 0.3 mm 2 mps 685 mmHg 91%
    12:00 +5°C° 0.3 mm 2 mps 685 mmHg 90%
    13:00 +6°C° 0.3 mm 2 mps 685 mmHg 90%
    14:00 +6°C° 0.3 mm 2 mps 685 mmHg 90%
    15:00 +5°C° 0.3 mm 2 mps 685 mmHg 90%
    16:00 +5°C° 0.3 mm 2 mps 684 mmHg 90%
    17:00 +5°C° 0.2 mm 2 mps 684 mmHg 91%
    18:00 +4°C° 0.2 mm 2 mps 684 mmHg 93%
    19:00 +4°C° 0.2 mm 1 mps 684 mmHg 94%
    20:00 +4°C° 0.1 mm 1 mps 685 mmHg 94%
    21:00 +3°C° 0.1 mm 1 mps 685 mmHg 94%
    22:00 +2°C° 0.1 mm 1 mps 685 mmHg 94%
    23:00 +2°C° 0 mm 1 mps 685 mmHg 93%

    29 April, Monday

    Time Temperature Precipitation Wind Pressure Humidity
    00:00 +1°C° 0 mm 1 mps 685 mmHg 92%
    01:00 +1°C° 0 mm 1 mps 685 mmHg 91%
    02:00 +1°C° 0.1 mm 1 mps 685 mmHg 91%
    03:00 +1°C° 0.1 mm 1 mps 684 mmHg 90%
    04:00 +1°C° 0.1 mm 1 mps 684 mmHg 90%
    05:00 +2°C° 0.1 mm 1 mps 684 mmHg 90%
    06:00 +2°C° 0.1 mm 1 mps 685 mmHg 89%
    07:00 +3°C° 0.1 mm 1 mps 685 mmHg 88%
    08:00 +4°C° 0.1 mm 1 mps 685 mmHg 87%
    09:00 +5°C° 0.1 mm 1 mps 685 mmHg 85%
    10:00 +6°C° 0.1 mm 1 mps 685 mmHg 84%
    11:00 +6°C° 0.2 mm 2 mps 685 mmHg 84%
    12:00 +6°C° 0.2 mm 2 mps 685 mmHg 84%
    13:00 +7°C° 0.2 mm 2 mps 684 mmHg 84%
    14:00 +7°C° 0.3 mm 2 mps 684 mmHg 84%
    15:00 +7°C° 0.3 mm 2 mps 684 mmHg 84%
    16:00 +7°C° 0.3 mm 2 mps 684 mmHg 85%
    17:00 +6°C° 0.1 mm 2 mps 684 mmHg 88%
    18:00 +6°C° 0.1 mm 1 mps 684 mmHg 91%
    19:00 +5°C° 0.1 mm 1 mps 684 mmHg 95%
    20:00 +5°C° 0.1 mm 1 mps 684 mmHg 95%
    21:00 +4°C° 0.1 mm 1 mps 684 mmHg 95%
    22:00 +4°C° 0.1 mm 1 mps 685 mmHg 95%
    23:00 +4°C° 0 mm 1 mps 685 mmHg 94%

    30 April, Tuesday

    Time Temperature Precipitation Wind Pressure Humidity
    00:00 +3°C° 0 mm 1 mps 685 mmHg 93%
    01:00 +3°C° 0 mm 1 mps 685 mmHg 93%
    02:00 +3°C° 0.1 mm 1 mps 684 mmHg 93%
    03:00 +3°C° 0.1 mm 1 mps 684 mmHg 93%
    04:00 +3°C° 0.1 mm 1 mps 684 mmHg 94%
    05:00 +4°C° 0.1 mm 1 mps 684 mmHg 92%
    06:00 +5°C° 0.1 mm 1 mps 684 mmHg 90%
    07:00 +6°C° 0.1 mm 1 mps 684 mmHg 89%
    08:00 +6°C° 0.2 mm 1 mps 684 mmHg 88%
    09:00 +7°C° 0.2 mm 1 mps 684 mmHg 86%
    10:00 +7°C° 0.2 mm 2 mps 684 mmHg 85%
    11:00 +7°C° 0.3 mm 2 mps 684 mmHg 85%
    12:00 +8°C° 0.3 mm 2 mps 683 mmHg 85%
    13:00 +8°C° 0.3 mm 2 mps 683 mmHg 84%
    14:00 +8°C° 0.2 mm 2 mps 683 mmHg 86%
    15:00 +8°C° 0.2 mm 2 mps 683 mmHg 87%
    16:00 +7°C° 0.2 mm 2 mps 683 mmHg 88%
    17:00 +7°C° 0 mm 2 mps 683 mmHg 90%
    18:00 +7°C° 0 mm 1 mps 683 mmHg 92%
    19:00 +6°C° 0 mm 1 mps 683 mmHg 95%
    20:00 +5°C° 0 mm 1 mps 683 mmHg 94%
    21:00 +4°C° 0 mm 1 mps 683 mmHg 94%
    22:00 +4°C° 0 mm 1 mps 684 mmHg 94%
    23:00 +3°C° 0 mm 1 mps 684 mmHg 93%

    1 May, Wednesday

    Time Temperature Precipitation Wind Pressure Humidity
    00:00 +3°C° 0 mm 1 mps 683 mmHg 91%
    01:00 +3°C° 0 mm 1 mps 683 mmHg 90%
    02:00 +3°C° 0 mm 1 mps 683 mmHg 90%
    03:00 +3°C° 0 mm 1 mps 683 mmHg 90%
    04:00 +4°C° 0 mm 1 mps 683 mmHg 90%
    05:00 +5°C° 0 mm 1 mps 683 mmHg 89%
    06:00 +6°C° 0 mm 1 mps 683 mmHg 87%
    07:00 +7°C° 0 mm 1 mps 683 mmHg 86%
    08:00 +9°C° 0 mm 1 mps 683 mmHg 83%
    09:00 +10°C° 0 mm 1 mps 683 mmHg 79%
    10:00 +12°C° 0 mm 1 mps 683 mmHg 76%
    11:00 +12°C° 0 mm 1 mps 683 mmHg 73%
    12:00 +13°C° 0 mm 1 mps 682 mmHg 70%
    13:00 +14°C° 0 mm 2 mps 682 mmHg 67%
    14:00 +14°C° 0 mm 2 mps 682 mmHg 68%
    15:00 +13°C° 0 mm 2 mps 682 mmHg 69%
    16:00 +13°C° 0 mm 2 mps 681 mmHg 69%
    17:00 +12°C° 0 mm 1 mps 681 mmHg 77%
    18:00 +10°C° 0 mm 1 mps 681 mmHg 84%
    19:00 +8°C° 0 mm 1 mps 681 mmHg 92%
    20:00 +8°C° 0 mm 1 mps 681 mmHg 93%
    21:00 +7°C° 0 mm 1 mps 681 mmHg 94%
    22:00 +6°C° 0 mm 1 mps 682 mmHg 95%
    23:00 +6°C° 0 mm 1 mps 681 mmHg 94%
    Show more